Hourly Data Report for October 04, 2017

All times are specified in Local Standard Time (LST). Add 1 hour to adjust for Daylight Saving Time where and when it is observed.

SALMON ARM CS
BRITISH COLUMBIA

50°42'10.800" N
119°17'26.440" W
350.50 m
116FRMN
71218
WSL

Download Data

Hourly Data (October 2017)
Hourly Data Report for October 4, 2017
Temp Definition
°C
Dew Point Temp Definition
°C
Rel Hum Definition
%
Wind Dir Definition
10's deg

Wind Spd Definition
km/h
Visibility Definition
km
Stn Press Definition
kPa
Hmdx Definition


Wind Chill Definition


Weather Definition


TIME
00:00 1.0 -0.9 87 17 7   98.56     LegendNANA
01:00 0.3 -1.0 91 18 6   98.57     LegendNANA
02:00 -0.8 -2.3 89 16 3   98.60   -2 LegendNANA
03:00 -0.5 -1.5 93 20 5   98.59   -2 LegendNANA
04:00 -1.2 -2.5 91 16 6   98.60   -3 LegendNANA
05:00 -1.4 -1.8 97 17 6   98.57   -4 LegendNANA
06:00 -1.4 -2.6 91 19 6   98.58   -4 LegendNANA
07:00 -0.1 -2.1 86 16 5   98.57   -2 LegendNANA
08:00 1.3 -1.3 83 16 5   98.56     LegendNANA
09:00 5.5 0.6 71 18 3   98.50     LegendNANA
10:00 8.3 0.5 58 3 2   98.42     LegendNANA
11:00 9.8 0.6 53 3 3   98.36     LegendNANA
12:00 11.2 0.2 47 2 4   98.27     LegendNANA
13:00 11.6 -0.1 45 1 3   98.17     LegendNANA
14:00 13.3 -0.4 39 34 3   98.09     LegendNANA
15:00 14.7 1.3 40 2 3   98.06     LegendNANA
16:00 14.2 0.2 38 33 2   98.03     LegendNANA
17:00 10.1 5.0 70 33 3   98.03     LegendNANA
18:00 6.3 2.7 78 19 3   98.07     LegendNANA
19:00 5.2 2.7 84 18 4   98.10     LegendNANA
20:00 4.8 1.9 81 17 6   98.13     LegendNANA
21:00 5.2 1.4 76 21 4   98.12     LegendNANA
22:00 3.7 1.3 85 18 6   98.14     LegendNANA
23:00 3.0 0.7 85 18 7   98.15     LegendNANA

Notes on Data Quality.

Legend

  • E = Estimated
  • M = Missing
  • NA = Not Available
  • ‡ = Partner data that is not subject to review by the National Climate Archives
Date modified: